Regional Weather Roundup
Issued by NWS

Home | Current Version | Previous Version | Text Only | Print | Product List | Glossary Off
Versions: 1 2 3 4 5 6 7 8 9 10 11 12 13 14 15 16 17 18 19 20 21 22 23 24 25 26 27 28 29 30 31 32 33 34 35 36 37 38 39 40 41 42 43 44 45 46 47 48 49 50

329
ASUS43 KIND 231200
RWRIN

WEATHER ROUNDUP FOR INDIANA
NATIONAL WEATHER SERVICE INDIANAPOLIS IN
800 AM EDT WED AUG 23 2017

NOTE: "FAIR" INDICATES FEW OR NO CLOUDS BELOW 12,000 FEET WITH NO
SIGNIFICANT WEATHER AND/OR OBSTRUCTIONS TO VISIBILITY.

* - STATION DOES NOT REPORT WEATHER SUCH AS PRECIPITATION OR FOG.

+ - STATION NOT QUALITY CONTROLLED BY THE NATIONAL WEATHER SERVICE.
    USE DATA WITH CAUTION...ESPECIALLY DEWPOINT AND RELATIVE
    HUMIDITY OBSERVATIONS.

INZ001>003-010>013-019-020-231300-
NORTHWEST INDIANA

CITY           SKY/WX    TMP DP  RH WIND       PRES   REMARKS
GARY /AIRPORT/ CLEAR     55  52  88 W7        30.04R
MICHIGAN CITY+ CLEAR     64  52  63 NW3       30.02S
MONTICELLO +   CLEAR     55  54  95 W3        30.02S
6HR MIN TEMP:  54; 6HR MAX TEMP:  61;


$$

LMZ046-743>745-231300-
SOUTHERN LAKE MICHIGAN

STATION/POSITION TIME  TEMP    WIND        PRES    WAVE
                       AIR SEA DIR/SP/G            HT
                 (UTC) (F)     (DEG/KT/KT) (MB)    (FT)
BURNS HARBOR     1140   69     280/ 11/ 13 1016.9R
MICHIGAN CITY    1130   69     290/ 14/ 15   N/A
5NW MICH CITY    1150   69 73  310/ 14/ 17   N/A     5

$$

INZ004-005-014>016-021>024-231300-
NORTH CENTRAL INDIANA

CITY           SKY/WX    TMP DP  RH WIND       PRES   REMARKS
ELKHART        CLEAR     57  54  88 W5        30.00S
GOSHEN         SUNNY     57  53  86 S3        30.00R
6HR MIN TEMP:  55; 6HR MAX TEMP:  58;

PERU/GRISSOM   PTCLDY    57  57 100 W3        30.02R
6HR MIN TEMP:  56; 6HR MAX TEMP:  62;

SOUTH BEND     CLEAR     59  58  96 W6        30.01S
6HR MIN TEMP:  54; 6HR MAX TEMP:  59;


$$

INZ006>009-017-018-025>027-231300-
NORTHEAST INDIANA

CITY           SKY/WX    TMP DP  RH WIND       PRES   REMARKS
FORT WAYNE     MOSUNNY   58  56  93 W6        30.01R
6HR MIN TEMP:  55; 6HR MAX TEMP:  58;


$$

INZ028-029-035-036-043>045-051>053-231300-
WEST CENTRAL INDIANA

CITY           SKY/WX    TMP DP  RH WIND       PRES   REMARKS
LAFAYETTE      CLEAR     55  55 100 CALM      30.04R
6HR MIN TEMP:  54; 6HR MAX TEMP:  61;

TERRE HAUTE    PTCLDY    58  54  86 N3        30.05R
6HR MIN TEMP:  56; 6HR MAX TEMP:  64;


$$

INZ030>032-037>040-046>048-054>057-064-065-231300-
CENTRAL INDIANA

CITY           SKY/WX    TMP DP  RH WIND       PRES   REMARKS
COLUMBUS       CLEAR     57  57 100 CALM      30.03R
GREENWOOD *+   PTCLDY   N/A N/A N/A CALM      30.03S
INDIANAPOLIS   MOCLDY    60  57  89 W3        30.03R
6HR MIN TEMP:  58; 6HR MAX TEMP:  63;

-EAGLE CREEK   MOCLDY    62  56  80 NW8       30.03R
6HR MIN TEMP:  60; 6HR MAX TEMP:  65;

KOKOMO +       CLEAR     59  56  89 W5        30.04R
6HR MIN TEMP:  57; 6HR MAX TEMP:  61;

MT COMFORT *+  PTCLDY    57  57 100 CALM      30.03S
SHELBYVILLE    FOG       60  57  89 CALM      30.02R VSB 3/4
6HR MIN TEMP:  57; 6HR MAX TEMP:  65;


$$

INZ033-034-041-042-049-050-058-059-231300-
EAST CENTRAL INDIANA

CITY           SKY/WX    TMP DP  RH WIND       PRES   REMARKS
MUNCIE         SUNNY     60  57  89 W3        30.02R
6HR MIN TEMP:  54; 6HR MAX TEMP:  60;

RICHMOND +     SUNNY     57  57 100 CALM      30.03R

$$

INZ060-061-067>069-081>083-085>088-231300-
SOUTHWEST INDIANA

CITY           SKY/WX    TMP DP  RH WIND       PRES   REMARKS
EVANSVILLE     CLEAR     63  58  83 N6        30.05R
6HR MIN TEMP:  62; 6HR MAX TEMP:  69;

HUNTINGBURG +  CLEAR     60  58  92 N6        30.04R
6HR MIN TEMP:  59; 6HR MAX TEMP:  67;


$$

INZ062-063-066-070>080-084-089>092-231300-
SOUTH CENTRAL AND SOUTHEAST INDIANA

CITY           SKY/WX    TMP DP  RH WIND       PRES   REMARKS
BLOOMINGTON    MOCLDY    58  55  90 CALM      30.04R
6HR MIN TEMP:  56; 6HR MAX TEMP:  65;

MADISON *+     PTSUNNY   61  59  94 CALM      30.05R
SEYMOUR +      MOCLDY    61  61 100 CALM      30.03R

$$





USA.gov is the U.S. government's official web portal to all federal, state and local government web resources and services.